Powrót do katalogu

TIANXIANG 1

AktywnyŁącznośćVLEO
NORAD 44310·PAYLOAD·🇨🇳 China
Ta nazwa satelity nie została jeszcze potwierdzona przez oficjalne źródła.

Wystrzelony Jun 5, 2019 z Yellow Sea Launch Area

Loading…

Następne Przeloty (najbliższe 24 godziny)

TLE

ŚwieżeSource: Space-Track

Epoka: Sep 14, 2026, 12:19 UTC

1 44310U 19032A   26257.51334856  .00007745  00000-0  27195-3 0  9994
2 44310  44.9698 287.7525 0009716  44.1738 315.9920 15.29937111400866

Śledź TIANXIANG 1 w czasie rzeczywistym z AllMySat

Download on the App Store